When you browse on this site, cookies collect data to enhance your experience and personalize the content and advertising you see.
Visit our Privacy Policy to learn more. By continuing to use the site, you agree to this use of cookies and data.

Meteo orario Tymoshenko

Oggi, 16 Luglio, Giovedi

Tempo Temperatura Precipitazioni Vento Pressione Umidità
00:00 +16°C° 0 mm 1 m/s 753 mm Hg 58%
01:00 +16°C° 0 mm 1 m/s 753 mm Hg 59%
02:00 +16°C° 0 mm 1 m/s 753 mm Hg 59%
03:00 +16°C° 0 mm 1 m/s 753 mm Hg 60%
04:00 +16°C° 0 mm 1 m/s 752 mm Hg 61%
05:00 +16°C° 0 mm 1 m/s 752 mm Hg 61%
06:00 +20°C° 0 mm 1 m/s 752 mm Hg 55%
07:00 +21°C° 0 mm 2 m/s 752 mm Hg 49%
08:00 +25°C° 0 mm 2 m/s 752 mm Hg 43%
09:00 +26°C° 0 mm 2 m/s 752 mm Hg 39%
10:00 +28°C° 0 mm 2 m/s 752 mm Hg 34%
11:00 +29°C° 0 mm 2 m/s 752 mm Hg 29%
12:00 +29°C° 0 mm 3 m/s 752 mm Hg 29%
13:00 +30°C° 0 mm 3 m/s 752 mm Hg 28%
14:00 +31°C° 0 mm 3 m/s 751 mm Hg 27%
15:00 +30°C° 0 mm 4 m/s 751 mm Hg 30%
16:00 +29°C° 0 mm 4 m/s 750 mm Hg 33%
17:00 +28°C° 0 mm 5 m/s 750 mm Hg 36%
18:00 +26°C° 0 mm 4 m/s 750 mm Hg 42%
19:00 +25°C° 0 mm 3 m/s 750 mm Hg 47%
20:00 +23°C° 0 mm 2 m/s 750 mm Hg 53%
21:00 +21°C° 0 mm 2 m/s 750 mm Hg 56%
22:00 +21°C° 0 mm 1 m/s 750 mm Hg 60%
23:00 +20°C° 0 mm 1 m/s 750 mm Hg 63%

Domani, 17 Luglio, Venerdi

Tempo Temperatura Precipitazioni Vento Pressione Umidità
00:00 +20°C° 0 mm 1 m/s 750 mm Hg 62%
01:00 +20°C° 0 mm 1 m/s 750 mm Hg 61%
02:00 +20°C° 0 mm 1 m/s 750 mm Hg 61%
03:00 +20°C° 0 mm 1 m/s 749 mm Hg 61%
04:00 +20°C° 0 mm 1 m/s 749 mm Hg 61%
05:00 +19°C° 0 mm 2 m/s 749 mm Hg 60%
06:00 +21°C° 0 mm 2 m/s 749 mm Hg 57%
07:00 +24°C° 0 mm 3 m/s 749 mm Hg 53%
08:00 +26°C° 0 mm 4 m/s 750 mm Hg 49%
09:00 +27°C° 0 mm 4 m/s 750 mm Hg 46%
10:00 +28°C° 0 mm 5 m/s 750 mm Hg 43%
11:00 +29°C° 0 mm 5 m/s 750 mm Hg 40%
12:00 +30°C° 0 mm 5 m/s 750 mm Hg 39%
13:00 +30°C° 0 mm 5 m/s 750 mm Hg 38%
14:00 +32°C° 0 mm 5 m/s 750 mm Hg 37%
15:00 +32°C° 0 mm 5 m/s 750 mm Hg 37%
16:00 +30°C° 0 mm 6 m/s 750 mm Hg 38%
17:00 +30°C° 0 mm 6 m/s 749 mm Hg 38%
18:00 +28°C° 0 mm 5 m/s 750 mm Hg 46%
19:00 +26°C° 0 mm 4 m/s 750 mm Hg 55%
20:00 +24°C° 0 mm 3 m/s 750 mm Hg 63%
21:00 +22°C° 0 mm 3 m/s 750 mm Hg 69%
22:00 +21°C° 0 mm 3 m/s 750 mm Hg 75%
23:00 +21°C° 0 mm 3 m/s 751 mm Hg 81%

Dopodomani, 18 Luglio, Sabato

Tempo Temperatura Precipitazioni Vento Pressione Umidità
00:00 +20°C° 0 mm 3 m/s 751 mm Hg 83%
01:00 +20°C° 0 mm 3 m/s 751 mm Hg 84%
02:00 +20°C° 0 mm 3 m/s 751 mm Hg 86%
03:00 +20°C° 0 mm 3 m/s 751 mm Hg 86%
04:00 +20°C° 0 mm 3 m/s 751 mm Hg 85%
05:00 +20°C° 0 mm 3 m/s 751 mm Hg 85%
06:00 +22°C° 0 mm 4 m/s 751 mm Hg 76%
07:00 +25°C° 0 mm 5 m/s 751 mm Hg 66%
08:00 +28°C° 0 mm 6 m/s 751 mm Hg 56%
09:00 +28°C° 0 mm 6 m/s 751 mm Hg 54%
10:00 +29°C° 0 mm 6 m/s 751 mm Hg 51%
11:00 +30°C° 0 mm 6 m/s 751 mm Hg 48%
12:00 +32°C° 0 mm 7 m/s 751 mm Hg 47%
13:00 +32°C° 0 mm 7 m/s 751 mm Hg 46%
14:00 +32°C° 0 mm 7 m/s 751 mm Hg 45%
15:00 +32°C° 0 mm 7 m/s 751 mm Hg 48%
16:00 +30°C° 0 mm 7 m/s 751 mm Hg 51%
17:00 +29°C° 0 mm 7 m/s 751 mm Hg 54%
18:00 +28°C° 0 mm 6 m/s 751 mm Hg 59%
19:00 +26°C° 0 mm 6 m/s 751 mm Hg 65%
20:00 +23°C° 0 mm 5 m/s 751 mm Hg 70%
21:00 +23°C° 0 mm 5 m/s 751 mm Hg 73%
22:00 +22°C° 0 mm 4 m/s 751 mm Hg 75%
23:00 +22°C° 0 mm 4 m/s 751 mm Hg 78%

19 Luglio, Domenica

Tempo Temperatura Precipitazioni Vento Pressione Umidità
00:00 +22°C° 0 mm 4 m/s 751 mm Hg 79%
01:00 +22°C° 0 mm 4 m/s 751 mm Hg 80%
02:00 +21°C° 0 mm 4 m/s 751 mm Hg 81%
03:00 +21°C° 0 mm 4 m/s 750 mm Hg 81%
04:00 +21°C° 0 mm 4 m/s 750 mm Hg 80%
05:00 +21°C° 0 mm 5 m/s 750 mm Hg 80%
06:00 +23°C° 0 mm 5 m/s 750 mm Hg 73%
07:00 +26°C° 0 mm 6 m/s 750 mm Hg 65%
08:00 +28°C° 0 mm 7 m/s 750 mm Hg 57%
09:00 +29°C° 0 mm 7 m/s 750 mm Hg 53%
10:00 +30°C° 0 mm 7 m/s 750 mm Hg 49%
11:00 +32°C° 0 mm 7 m/s 750 mm Hg 45%
12:00 +33°C° 0 mm 7 m/s 750 mm Hg 44%
13:00 +33°C° 0 mm 7 m/s 750 mm Hg 43%
14:00 +33°C° 0 mm 7 m/s 750 mm Hg 42%
15:00 +33°C° 0 mm 6 m/s 749 mm Hg 44%
16:00 +32°C° 0 mm 6 m/s 749 mm Hg 46%
17:00 +30°C° 0 mm 5 m/s 749 mm Hg 48%
18:00 +28°C° 0 mm 4 m/s 749 mm Hg 55%
19:00 +26°C° 0 mm 3 m/s 749 mm Hg 62%
20:00 +24°C° 0 mm 2 m/s 749 mm Hg 69%
21:00 +24°C° 0 mm 2 m/s 749 mm Hg 74%
22:00 +23°C° 0 mm 1 m/s 749 mm Hg 78%
23:00 +20°C° 0 mm 0 m/s 749 mm Hg 83%

20 Luglio, Lunedi

Tempo Temperatura Precipitazioni Vento Pressione Umidità
00:00 +20°C° 0 mm 0 m/s 749 mm Hg 83%
01:00 +22°C° 0 mm 1 m/s 749 mm Hg 84%
02:00 +21°C° 0 mm 1 m/s 749 mm Hg 84%
03:00 +21°C° 0 mm 1 m/s 749 mm Hg 83%
04:00 +22°C° 0 mm 1 m/s 749 mm Hg 81%
05:00 +22°C° 0 mm 1 m/s 749 mm Hg 79%
06:00 +24°C° 0 mm 2 m/s 749 mm Hg 70%
07:00 +27°C° 0 mm 2 m/s 749 mm Hg 61%
08:00 +30°C° 0 mm 2 m/s 749 mm Hg 53%
09:00 +31°C° 0 mm 2 m/s 748 mm Hg 46%
10:00 +34°C° 0 mm 2 m/s 748 mm Hg 40%
11:00 +36°C° 0 mm 2 m/s 748 mm Hg 33%
12:00 +36°C° 0 mm 4 m/s 748 mm Hg 34%
13:00 +36°C° 0 mm 5 m/s 748 mm Hg 35%
14:00 +35°C° 0 mm 6 m/s 747 mm Hg 37%
15:00 +34°C° 0 mm 5 m/s 747 mm Hg 39%
16:00 +33°C° 0 mm 5 m/s 747 mm Hg 42%
17:00 +32°C° 0 mm 5 m/s 747 mm Hg 44%
18:00 +29°C° 0 mm 4 m/s 747 mm Hg 53%
19:00 +27°C° 0 mm 4 m/s 747 mm Hg 62%
20:00 +25°C° 0 mm 4 m/s 746 mm Hg 70%
21:00 +23°C° 0 mm 4 m/s 746 mm Hg 76%
22:00 +22°C° 0 mm 4 m/s 746 mm Hg 82%
23:00 +22°C° 0 mm 4 m/s 746 mm Hg 87%

21 Luglio, Martedi

Tempo Temperatura Precipitazioni Vento Pressione Umidità
00:00 +21°C° 0 mm 4 m/s 746 mm Hg 89%
01:00 +21°C° 0 mm 4 m/s 746 mm Hg 91%
02:00 +20°C° 0 mm 4 m/s 746 mm Hg 93%
03:00 +21°C° 0 mm 4 m/s 746 mm Hg 92%
04:00 +21°C° 0 mm 4 m/s 745 mm Hg 91%
05:00 +21°C° 0 mm 4 m/s 745 mm Hg 90%
06:00 +23°C° 0 mm 4 m/s 745 mm Hg 76%
07:00 +27°C° 0 mm 5 m/s 746 mm Hg 62%
08:00 +29°C° 0 mm 6 m/s 746 mm Hg 49%
09:00 +30°C° 0 mm 6 m/s 746 mm Hg 45%
10:00 +32°C° 0 mm 6 m/s 746 mm Hg 41%
11:00 +33°C° 0 mm 6 m/s 746 mm Hg 37%
12:00 +33°C° 0 mm 6 m/s 746 mm Hg 38%
13:00 +32°C° 0 mm 6 m/s 746 mm Hg 39%
14:00 +32°C° 0 mm 6 m/s 746 mm Hg 40%
15:00 +30°C° 0 mm 6 m/s 746 mm Hg 43%
16:00 +30°C° 0 mm 6 m/s 746 mm Hg 46%
17:00 +29°C° 0 mm 6 m/s 746 mm Hg 48%
18:00 +28°C° 0 mm 6 m/s 747 mm Hg 55%
19:00 +26°C° 0 mm 5 m/s 747 mm Hg 62%
20:00 +25°C° 0 mm 4 m/s 747 mm Hg 69%
21:00 +23°C° 0 mm 4 m/s 747 mm Hg 71%
22:00 +23°C° 0 mm 4 m/s 748 mm Hg 74%
23:00 +24°C° 0 mm 3 m/s 748 mm Hg 77%
Mostrare altro